Wind_Speed
28 28 28 28 29 29 29 27 25 25 24 24 24 24 23 23 23 24 23 23 23 22 22 22 21 21 20 20 19 19 20 19 19 18 17 17 16 16 15 15 14 13 13 12 11 11 10 10 10
27 29 29 30 31 31 30 28 27 26 26 26 26 26 25 25 25 25 25 25 25 24 24 23 23 23 22 22 21 21 21 21 20 20 19 18 18 17 17 16 16 15 14 14 13 12 12 11 11
27 28 30 31 32 32 31 30 29 29 28 28 28 28 28 27 26 26 26 25 25 26 26 25 26 25 25 24 23 23 22 22 22 21 21 20 19 19 18 18 17 17 16 15 15 14 14 13 13
28 29 30 32 32 31 32 31 31 31 31 30 30 31 30 29 28 27 27 26 26 26 27 28 28 27 27 26 26 25 24 24 23 23 23 22 21 21 20 19 19 19 18 17 17 16 16 15 15
29 30 31 32 32 32 32 33 33 33 33 33 33 32 32 30 29 29 29 28 28 28 28 29 29 29 28 28 28 28 27 26 25 25 24 24 23 23 22 22 21 21 20 19 19 19 18 17 17
30 31 33 32 33 33 33 34 35 36 35 35 35 35 34 33 32 31 31 30 30 30 29 30 31 31 30 30 30 30 29 28 28 27 27 26 26 25 24 24 24 23 22 21 21 21 20 20 19
30 32 32 32 33 34 34 34 36 36 36 37 37 37 36 35 34 33 33 32 32 31 31 32 33 32 32 32 31 32 31 31 30 30 29 28 28 27 27 26 26 25 24 24 23 23 23 22 21
30 31 31 31 31 33 34 34 35 36 36 37 37 37 37 36 35 35 34 34 33 33 33 34 34 35 34 34 34 33 33 33 33 32 31 31 31 30 29 29 28 28 27 26 25 25 25 24 24
30 30 30 30 31 33 34 35 35 36 37 37 37 38 38 37 37 37 36 36 35 35 35 35 36 36 36 36 36 36 35 35 35 35 34 33 33 32 32 31 31 30 30 29 28 27 27 26 25
30 30 30 31 31 33 34 35 35 36 37 37 37 38 38 38 38 37 37 37 37 37 37 37 38 38 38 38 38 38 37 37 37 37 37 36 35 35 34 34 33 33 32 31 31 30 29 28 28
29 30 31 32 33 33 35 36 36 36 37 38 38 38 38 38 38 38 38 38 38 38 38 39 40 40 40 40 39 39 39 39 39 39 39 39 38 37 36 36 35 35 34 34 33 32 31 31 30
30 30 31 32 33 34 35 37 37 38 37 38 39 39 39 39 39 38 38 38 39 39 39 40 41 42 42 41 41 41 41 41 41 41 41 41 40 39 39 37 37 37 37 36 36 35 34 33 32
29 30 31 32 33 35 36 37 38 38 38 38 38 39 39 39 39 38 38 38 38 38 39 40 41 42 43 43 42 43 42 42 42 42 42 43 43 41 41 39 39 38 39 38 37 37 36 36 35
29 30 31 32 33 34 36 36 37 37 38 37 38 38 39 40 40 39 39 38 37 38 38 40 40 41 42 43 43 44 43 43 44 44 44 44 44 43 42 41 41 40 40 40 40 39 38 37 36
29 30 31 32 33 34 35 35 34 35 37 37 38 38 39 40 40 40 39 38 38 38 39 39 41 41 41 43 44 44 44 44 44 45 45 45 46 45 43 42 42 42 42 42 41 41 40 40 38
29 30 31 31 32 32 34 33 31 33 36 37 37 37 38 39 40 40 39 39 39 39 40 40 41 41 41 43 44 44 45 44 44 45 46 46 46 45 44 44 43 44 43 43 43 43 41 41 40
28 29 30 30 32 32 32 31 30 32 34 35 35 35 36 37 38 38 39 39 39 40 40 41 41 41 43 44 43 43 44 44 44 45 46 46 47 47 46 44 44 44 44 43 43 43 42 41 40
28 28 29 29 31 31 31 30 30 31 32 33 34 34 34 35 35 36 38 39 39 40 40 41 42 43 44 44 43 44 44 44 45 45 46 47 48 48 47 46 45 44 43 43 43 44 44 43 41
27 27 27 28 30 31 30 29 28 29 30 31 32 32 31 32 32 33 34 36 38 39 40 42 42 42 42 44 44 44 44 44 45 46 48 47 47 48 47 47 46 45 44 43 43 44 43 44 43
27 27 27 27 28 29 28 28 27 28 28 29 30 31 31 32 31 33 33 35 37 38 39 41 42 43 43 44 44 45 44 45 45 45 46 47 48 49 48 47 46 44 45 45 44 43 42 43 44
26 26 26 27 26 27 27 26 25 26 28 29 29 30 30 31 32 32 34 34 36 37 38 39 40 42 43 45 45 45 45 44 44 45 45 46 48 49 48 47 46 46 46 45 45 43 43 43 43
24 25 25 26 26 25 26 27 25 26 28 28 27 27 28 30 32 33 34 35 36 38 39 40 40 40 42 45 45 44 45 45 43 44 46 46 47 48 47 47 47 46 45 45 45 45 44 43 43
23 25 25 26 26 26 26 27 26 27 28 28 28 27 27 28 30 32 34 35 36 38 38 40 40 39 41 42 43 45 45 46 44 44 46 45 46 46 46 47 47 47 46 46 47 46 46 43 43
23 25 26 26 26 26 25 27 26 26 27 28 28 26 27 28 28 30 34 35 35 36 38 38 39 39 41 41 42 44 45 45 45 44 45 45 46 46 47 47 47 47 47 47 48 48 47 45 45
23 23 24 25 25 25 24 26 26 25 26 27 26 27 27 27 28 30 33 35 35 36 37 39 39 39 40 41 40 41 43 44 45 45 45 44 45 45 45 47 47 46 45 45 46 47 48 47 46
21 21 22 23 24 24 23 24 24 25 26 25 25 27 28 28 29 30 32 33 34 35 37 38 40 39 40 39 40 39 41 42 43 44 44 44 44 44 43 44 45 45 44 44 45 46 47 47 46
21 20 21 23 23 23 23 22 22 22 23 24 25 27 28 29 31 31 31 32 34 35 36 37 39 39 39 39 39 38 39 40 42 43 44 44 44 44 43 43 45 45 44 44 44 45 46 47 46
21 21 21 22 23 24 23 22 21 21 21 21 23 24 26 28 30 31 31 30 32 34 35 37 38 39 40 40 39 38 37 39 39 40 40 40 42 42 43 44 44 45 45 44 43 44 45 47 46
21 21 21 22 23 24 24 22 22 21 22 22 22 23 25 26 27 28 29 31 31 33 34 36 38 38 39 39 39 39 37 37 37 37 37 38 39 42 43 43 44 45 46 45 44 44 44 46 47
22 21 21 22 23 23 24 23 21 21 22 23 23 23 24 24 24 25 26 28 29 31 33 36 38 39 39 38 38 39 38 38 36 36 36 37 38 38 38 40 41 42 44 45 44 45 45 45 45
Wind_Direction
248 247 247 248 249 250 251 252 253 254 254 255 257 258 259 260 261 261 259 257 253 249 247 245 244 242 240 239 239 239 240 240 240 240 239 239 238 239 240 240 239 240 242 245 246 249 253 256 259
247 247 247 248 249 250 252 253 254 255 255 256 258 259 260 261 261 260 258 257 253 249 246 244 243 242 241 240 240 239 240 241 241 241 240 239 239 240 242 243 243 243 244 247 249 252 255 258 260
247 247 248 249 251 252 254 254 255 255 256 257 259 260 260 261 261 260 258 256 254 251 247 245 243 242 242 242 242 241 241 241 242 243 242 242 242 242 242 243 244 245 246 248 250 253 255 258 261
249 248 250 252 253 254 254 254 255 256 257 258 260 261 261 261 260 258 256 255 254 252 249 246 244 243 243 243 242 243 242 242 242 243 243 243 243 244 243 243 244 245 247 249 250 252 255 258 261
251 250 252 254 256 256 255 255 255 257 258 259 260 261 261 260 259 258 255 253 252 250 249 247 245 243 243 244 243 243 244 243 243 243 243 244 244 244 244 245 246 247 248 249 252 254 255 257 260
253 253 254 256 257 257 257 255 255 257 259 260 260 260 260 260 258 256 255 252 251 249 248 247 244 243 243 243 244 244 244 244 244 244 244 245 245 245 246 247 247 248 249 251 253 255 257 258 260
257 256 256 257 259 258 258 257 257 258 259 260 260 260 259 258 258 256 254 252 250 249 247 247 244 243 243 243 243 244 244 244 245 245 245 246 247 247 248 248 248 249 250 252 254 255 257 258 260
258 257 258 259 259 259 259 259 259 259 260 260 260 259 258 257 257 256 254 251 250 249 249 247 245 244 244 244 243 244 244 245 245 245 246 247 248 248 248 249 249 249 251 253 254 256 256 259 260
259 259 260 260 261 261 260 260 260 260 260 261 260 259 258 257 257 255 253 251 250 249 249 248 245 244 244 245 244 244 245 245 245 245 246 247 248 249 249 249 250 250 251 253 255 256 256 257 259
260 261 261 262 264 264 262 262 262 261 262 262 261 260 259 257 257 256 254 251 250 250 250 248 246 245 245 246 245 244 245 246 246 246 246 248 248 250 251 251 250 250 251 253 255 256 256 256 258
262 264 263 264 264 265 264 263 263 263 262 262 262 261 260 259 257 257 256 253 251 250 248 246 245 246 245 246 246 246 246 246 246 246 247 248 248 250 251 252 251 251 252 253 254 255 256 257 258
265 266 265 266 267 266 266 265 264 263 264 263 263 263 261 260 258 257 255 253 251 250 247 245 244 245 245 245 246 246 246 246 246 247 247 247 248 250 251 253 252 251 252 253 255 255 256 256 257
268 269 269 270 270 270 269 266 264 263 263 264 263 263 262 260 257 256 255 253 251 250 247 245 244 244 244 245 246 247 247 247 247 248 248 247 248 250 252 253 253 253 253 253 254 254 254 256 257
270 270 270 273 274 274 271 268 266 264 263 262 261 261 261 259 257 256 254 252 250 249 247 245 245 245 245 244 245 247 248 248 247 248 249 248 248 250 252 252 253 253 253 253 252 252 253 255 257
271 272 272 273 276 277 274 271 268 267 263 263 261 260 261 259 257 255 253 251 250 248 247 246 245 246 246 244 244 246 248 248 248 248 248 248 249 251 252 252 254 253 252 252 251 252 253 254 256
274 274 275 275 276 277 276 274 269 267 264 262 263 261 260 259 257 254 251 250 249 247 246 248 247 247 247 246 246 245 247 248 249 249 248 248 250 251 252 254 255 254 253 252 252 253 254 254 256
277 277 276 276 275 275 276 274 270 268 265 263 263 262 261 260 257 252 250 248 248 247 246 247 247 247 247 246 247 247 249 249 249 249 248 249 249 250 252 253 254 255 253 251 252 252 253 254 255
279 279 277 277 275 275 275 276 273 270 267 266 265 265 264 260 256 252 251 249 247 247 247 247 247 246 246 245 246 248 250 251 250 249 249 249 249 250 251 252 253 253 251 250 251 253 253 254 254
277 278 278 278 277 275 274 274 274 273 269 267 267 266 264 259 255 254 251 250 247 247 247 247 247 247 246 245 246 247 250 251 250 250 250 250 250 250 251 251 252 251 249 249 251 254 253 253 254
276 276 276 278 280 279 275 273 274 274 270 269 269 266 263 259 254 254 253 250 247 246 248 249 248 248 247 247 247 247 250 250 250 251 251 251 250 251 252 251 250 249 249 249 251 253 254 254 253
276 276 277 278 280 280 279 278 277 275 273 272 271 267 264 260 255 252 252 249 247 246 248 251 250 248 248 248 248 248 249 249 250 251 254 253 252 252 252 251 249 250 251 252 252 252 252 253 253
279 277 278 277 279 280 282 282 277 275 274 273 272 269 266 261 257 254 253 250 249 249 251 249 250 248 249 249 248 249 249 250 252 252 253 253 252 252 252 251 250 251 252 252 252 251 251 254 254
283 280 281 280 280 281 283 284 280 277 274 274 273 269 268 263 262 258 254 252 250 250 250 248 248 247 249 250 250 251 251 251 252 252 252 253 252 252 252 252 251 252 251 252 252 251 250 251 254
288 285 283 282 280 281 282 283 283 279 276 276 273 270 271 267 266 263 257 252 252 253 251 248 247 248 249 250 252 252 251 252 252 253 253 253 252 251 251 252 251 252 252 252 252 251 250 251 254
296 293 290 287 282 281 283 284 284 283 279 278 273 272 274 271 270 267 261 254 253 253 252 251 249 250 250 251 252 252 251 253 253 253 253 252 252 250 250 251 251 252 252 253 253 252 252 251 252
300 297 292 289 288 284 286 288 288 286 283 279 276 274 276 273 271 272 267 259 257 256 254 252 252 253 252 252 252 254 254 253 253 253 253 252 250 249 250 250 251 251 252 253 253 253 252 250 252
298 296 293 289 289 289 289 292 294 291 287 282 280 279 279 275 273 273 269 263 261 258 256 254 254 255 255 255 255 256 257 255 254 253 252 251 251 250 251 251 250 251 251 252 253 254 253 251 252
297 295 293 291 291 289 289 294 297 293 290 286 285 284 282 281 277 274 269 267 262 259 258 256 255 256 256 257 257 258 258 257 256 255 254 254 253 252 253 253 251 251 251 251 252 254 254 253 253
297 295 292 290 291 290 291 295 298 295 290 290 290 289 288 285 282 277 272 269 266 263 261 258 257 257 257 257 258 257 257 257 254 253 253 254 255 256 256 254 253 251 249 249 250 252 255 256 255
295 293 289 288 289 290 291 297 300 296 292 292 294 294 293 288 284 280 277 274 270 267 265 262 259 258 257 257 257 257 256 256 254 254 255 256 256 257 256 256 255 252 251 250 251 252 255 256 253
Height
5822 5824 5825 5827 5828 5829 5830 5833 5835 5836 5837 5837 5838 5838 5839 5840 5841 5843 5842 5842 5843 5844 5844 5845 5846 5848 5849 5850 5851 5852 5853 5854 5855 5856 5857 5857 5858 5858 5858 5859 5859 5859 5860 5860 5860 5860 5860 5860 5860
5816 5818 5820 5820 5821 5822 5825 5828 5829 5830 5831 5831 5832 5832 5833 5833 5834 5834 5835 5835 5836 5838 5839 5840 5842 5843 5844 5845 5847 5848 5849 5850 5851 5852 5853 5854 5854 5855 5855 5856 5856 5857 5857 5857 5857 5857 5857 5857 5857
5810 5811 5813 5813 5814 5817 5819 5821 5822 5823 5824 5825 5825 5825 5826 5827 5827 5827 5828 5829 5830 5831 5833 5835 5836 5838 5839 5841 5842 5843 5844 5846 5847 5848 5849 5850 5850 5851 5852 5852 5853 5854 5854 5854 5854 5854 5855 5855 5854
5804 5805 5806 5807 5808 5811 5813 5815 5815 5815 5816 5817 5818 5818 5819 5820 5820 5821 5821 5822 5823 5825 5826 5828 5830 5832 5834 5835 5837 5838 5840 5841 5842 5843 5844 5845 5846 5847 5848 5849 5849 5850 5850 5851 5851 5851 5851 5851 5851
5797 5798 5799 5799 5801 5804 5805 5806 5806 5807 5808 5809 5810 5810 5811 5812 5812 5812 5813 5815 5816 5818 5819 5821 5823 5825 5827 5829 5831 5833 5834 5836 5837 5838 5839 5840 5841 5842 5843 5844 5845 5846 5846 5847 5847 5847 5848 5848 5848
5790 5790 5792 5792 5794 5795 5796 5797 5797 5799 5800 5801 5801 5802 5803 5803 5803 5804 5805 5806 5808 5810 5812 5814 5816 5818 5821 5823 5825 5827 5828 5830 5832 5833 5834 5835 5836 5837 5838 5839 5840 5841 5842 5842 5843 5843 5843 5844 5844
5783 5783 5783 5784 5785 5786 5787 5787 5788 5789 5790 5792 5792 5792 5794 5794 5794 5795 5796 5798 5800 5802 5804 5806 5809 5811 5813 5816 5818 5820 5822 5824 5825 5827 5828 5829 5830 5831 5833 5834 5835 5836 5837 5837 5838 5838 5839 5839 5839
5775 5776 5776 5776 5777 5778 5778 5778 5779 5780 5781 5782 5782 5782 5784 5784 5785 5786 5787 5789 5791 5794 5796 5798 5800 5803 5805 5808 5810 5812 5814 5816 5818 5820 5822 5823 5824 5825 5826 5827 5829 5830 5831 5832 5832 5833 5833 5834 5834
5768 5769 5769 5769 5769 5770 5769 5769 5770 5770 5771 5771 5771 5772 5773 5774 5775 5776 5778 5780 5782 5785 5788 5790 5792 5794 5797 5800 5802 5804 5806 5808 5811 5812 5814 5816 5817 5819 5819 5820 5822 5823 5824 5825 5826 5827 5827 5828 5828
5760 5761 5762 5762 5761 5761 5761 5761 5761 5761 5761 5761 5761 5761 5762 5763 5764 5766 5768 5771 5773 5775 5778 5780 5783 5785 5788 5790 5793 5795 5798 5800 5802 5804 5806 5808 5809 5811 5812 5813 5815 5816 5817 5818 5819 5820 5821 5821 5822
5753 5754 5754 5753 5753 5752 5752 5752 5752 5751 5752 5752 5751 5752 5752 5753 5754 5756 5758 5760 5763 5765 5768 5770 5772 5775 5778 5780 5783 5786 5788 5790 5793 5795 5797 5799 5801 5803 5804 5805 5807 5808 5809 5810 5811 5812 5813 5814 5815
5746 5746 5746 5745 5744 5744 5743 5743 5742 5742 5742 5742 5741 5742 5743 5743 5744 5746 5748 5750 5752 5754 5757 5759 5762 5764 5767 5770 5773 5775 5778 5780 5782 5785 5788 5790 5792 5794 5796 5797 5798 5799 5800 5802 5803 5804 5805 5807 5807
5738 5738 5738 5737 5736 5735 5734 5733 5732 5732 5732 5732 5731 5732 5733 5733 5735 5736 5738 5740 5742 5744 5747 5749 5751 5754 5756 5759 5762 5764 5767 5769 5772 5775 5777 5779 5782 5784 5786 5788 5789 5790 5791 5792 5794 5795 5796 5798 5799
5731 5730 5729 5728 5727 5726 5724 5723 5722 5723 5722 5722 5722 5722 5723 5724 5725 5726 5728 5730 5732 5734 5736 5738 5741 5743 5745 5748 5751 5753 5755 5758 5761 5764 5766 5769 5771 5773 5775 5777 5779 5780 5781 5782 5784 5785 5787 5788 5790
5722 5722 5721 5719 5718 5716 5715 5714 5713 5713 5712 5711 5712 5712 5713 5713 5714 5716 5718 5720 5722 5724 5726 5728 5730 5732 5735 5737 5740 5742 5744 5747 5750 5753 5755 5758 5760 5762 5764 5766 5767 5769 5770 5771 5773 5775 5777 5779 5780
5714 5713 5712 5711 5709 5707 5707 5706 5705 5702 5701 5701 5701 5702 5702 5703 5704 5705 5707 5709 5711 5713 5716 5718 5720 5721 5724 5727 5729 5732 5734 5736 5738 5741 5744 5746 5749 5751 5753 5754 5755 5757 5759 5761 5763 5765 5766 5768 5770
5706 5705 5704 5703 5701 5699 5697 5697 5696 5693 5692 5692 5692 5692 5692 5692 5693 5695 5696 5698 5699 5702 5704 5707 5708 5711 5713 5716 5718 5721 5723 5725 5727 5729 5732 5735 5738 5739 5741 5743 5744 5745 5747 5750 5752 5754 5756 5758 5759
5699 5697 5696 5694 5693 5691 5689 5689 5687 5685 5684 5683 5683 5682 5682 5682 5684 5685 5686 5687 5689 5691 5693 5695 5697 5700 5702 5705 5707 5710 5712 5714 5716 5718 5720 5724 5727 5728 5730 5732 5733 5734 5736 5739 5742 5744 5746 5748 5749
5690 5689 5688 5687 5684 5683 5682 5681 5679 5677 5676 5675 5674 5674 5673 5674 5675 5675 5676 5677 5678 5680 5682 5684 5687 5689 5691 5694 5697 5700 5702 5704 5706 5708 5710 5713 5715 5717 5719 5720 5722 5724 5726 5729 5731 5733 5735 5737 5739
5683 5681 5680 5679 5677 5675 5674 5673 5672 5670 5669 5667 5666 5665 5665 5666 5666 5666 5666 5667 5668 5670 5672 5674 5676 5679 5681 5684 5687 5690 5692 5694 5696 5698 5700 5702 5704 5706 5708 5710 5712 5714 5717 5719 5721 5723 5725 5727 5729
5676 5675 5674 5672 5671 5669 5668 5667 5665 5663 5661 5660 5659 5658 5657 5658 5658 5658 5658 5658 5660 5661 5663 5664 5666 5669 5671 5674 5676 5679 5681 5684 5686 5688 5690 5691 5693 5695 5697 5700 5702 5704 5706 5708 5710 5712 5714 5716 5718
5670 5669 5667 5665 5664 5662 5661 5659 5659 5657 5655 5653 5652 5651 5650 5650 5650 5650 5650 5651 5651 5652 5653 5655 5657 5659 5661 5664 5667 5670 5672 5674 5676 5678 5679 5680 5682 5684 5686 5688 5691 5693 5695 5697 5698 5701 5703 5705 5708
5663 5662 5661 5659 5657 5656 5654 5652 5652 5650 5648 5647 5645 5644 5643 5643 5642 5642 5642 5642 5642 5643 5643 5645 5647 5649 5651 5654 5657 5659 5661 5663 5664 5666 5668 5669 5671 5673 5675 5677 5680 5682 5683 5685 5687 5689 5692 5695 5697
5657 5656 5654 5652 5651 5650 5649 5646 5645 5643 5641 5640 5638 5637 5636 5635 5634 5634 5633 5633 5633 5634 5634 5635 5637 5639 5641 5644 5646 5648 5650 5651 5654 5655 5656 5658 5660 5662 5664 5665 5668 5670 5672 5674 5676 5678 5681 5684 5686
5652 5650 5648 5645 5644 5644 5643 5640 5639 5636 5634 5633 5631 5630 5629 5628 5627 5626 5625 5625 5625 5625 5626 5626 5628 5630 5632 5634 5636 5637 5638 5640 5642 5644 5646 5647 5649 5651 5653 5654 5657 5659 5661 5663 5665 5667 5670 5672 5675
5646 5644 5643 5640 5638 5637 5636 5633 5633 5630 5628 5626 5624 5623 5621 5620 5620 5618 5617 5617 5616 5617 5617 5618 5619 5620 5622 5624 5625 5626 5628 5629 5631 5632 5634 5636 5638 5640 5641 5644 5646 5648 5651 5653 5655 5657 5659 5661 5664
5641 5639 5637 5634 5632 5631 5630 5628 5627 5624 5622 5620 5618 5616 5614 5613 5611 5610 5609 5608 5608 5608 5608 5609 5610 5611 5613 5614 5615 5616 5617 5619 5621 5622 5624 5625 5627 5629 5631 5633 5636 5638 5640 5642 5644 5646 5648 5650 5653
5635 5633 5631 5629 5626 5625 5624 5622 5620 5617 5615 5613 5611 5609 5607 5605 5604 5602 5601 5599 5599 5599 5599 5599 5600 5601 5602 5604 5605 5607 5608 5609 5611 5612 5614 5616 5617 5618 5620 5623 5625 5627 5630 5632 5633 5635 5637 5639 5641
5629 5627 5625 5622 5621 5619 5617 5619 5614 5611 5608 5606 5605 5603 5600 5598 5596 5594 5593 5592 5591 5590 5590 5590 5591 5592 5593 5594 5596 5597 5598 5599 5601 5603 5604 5606 5607 5609 5610 5612 5614 5616 5619 5621 5623 5624 5626 5628 5630
5623 5621 5619 5618 5616 5613 5611 5614 5608 5605 5602 5600 5598 5596 5594 5591 5589 5587 5586 5584 5582 5582 5582 5581 5581 5582 5584 5585 5586 5587 5589 5590 5591 5593 5594 5596 5597 5598 5600 5601 5603 5605 5607 5609 5612 5614 5615 5617 5619